Weather History for Monticello, IA

Change the Weather History Date:

Thursday, January 30, 2014

  Actual Average Record
Temperature  
Mean Temperature 20 °F -  
Max Temperature 33 °F 28 °F 48 °F (2012)
Min Temperature 8 °F 14 °F -13 °F (2004)
Degree Days  
Heating Degree Days 44    
Moisture  
Dew Point 16 °F    
Average Humidity 71    
Maximum Humidity 93    
Minimum Humidity 55    
Precipitation  
Precipitation 0.00 in - - ()
Sea Level Pressure  
Sea Level Pressure 29.71 in    
Wind  
Wind Speed 15 mph (SW)    
Max Wind Speed 25 mph    
Max Gust Speed 39 mph    
Visibility 9 miles    
Events Snow    
Averages and records for this station are not official NWS values.
T = Trace of Precipitation, MM = Missing Value Source: NWS Daily Summary

Daily Weather History Graph

Daily Weather History Graph

Search for Another Location

Airport:

Trip Planner

Search our weather history database for the weather conditions in past years. The results will help you decide how hot, cold, wet, or windy it might be!

Date:

Astronomy

Jan. 30, 2014 Rise Set
Actual Time 7:19 AM CST 5:16 PM CST
Civil Twilight 6:50 AM CST 5:46 PM CST
Nautical Twilight 6:16 AM CST 6:20 PM CST
Astronomical Twilight 5:43 AM CST 6:53 PM CST
Moon 6:45 AM CST 5:29 PM CST
Length of Visible Light 10h 56m
Length of Day
9h 56m
Waning Crescent, 0% of the Moon is Illuminated
Jan 30
Waning Crescent
Jan 30
New
Feb 6
First Quarter
Feb 14
Full
Feb 22
Last Quarter

Hourly Weather History & Observations

Time (CST) Temp. Windchill Dew Point Humidity Pressure Visibility Wind Dir Wind Speed Gust Speed Precip Events Conditions
12:15 AM 24.8 °F 15.3 °F 12.2 °F 59% 29.79 in 10.0 mi South 9.2 mph 16.1 mph N/A   Clear
12:35 AM 26.6 °F 15.2 °F 12.2 °F 55% 29.78 in 10.0 mi South 13.8 mph - N/A   Clear
12:55 AM 26.6 °F 16.2 °F 12.2 °F 55% 29.77 in 10.0 mi South 11.5 mph 19.6 mph N/A   Clear
1:15 AM 26.6 °F 15.7 °F 12.2 °F 55% 29.76 in 10.0 mi South 12.7 mph 20.7 mph N/A   Clear
1:35 AM 24.8 °F 13.4 °F 12.2 °F 59% 29.75 in 10.0 mi South 12.7 mph - N/A   Clear
1:55 AM 24.8 °F 13.4 °F 12.2 °F 59% 29.75 in 10.0 mi SSE 12.7 mph 19.6 mph N/A   Clear
2:15 AM 24.8 °F 13.4 °F 12.2 °F 59% 29.74 in 10.0 mi South 12.7 mph - N/A   Clear
2:35 AM 24.8 °F 12.4 °F 12.2 °F 59% 29.73 in 10.0 mi South 15.0 mph - N/A   Clear
2:55 AM 26.6 °F 14.3 °F 14.0 °F 59% 29.72 in 10.0 mi South 16.1 mph - N/A   Clear
3:15 AM 26.6 °F 15.2 °F 14.0 °F 59% 29.71 in 10.0 mi South 13.8 mph - N/A   Clear
3:35 AM 26.6 °F 15.2 °F 14.0 °F 59% 29.70 in 10.0 mi South 13.8 mph 21.9 mph N/A   Clear
3:55 AM 26.6 °F 14.3 °F 14.0 °F 59% 29.68 in 10.0 mi South 16.1 mph 21.9 mph N/A   Clear
4:15 AM 26.6 °F 13.8 °F 14.0 °F 59% 29.68 in 10.0 mi South 17.3 mph 24.2 mph N/A   Clear
4:35 AM 26.6 °F 14.7 °F 14.0 °F 59% 29.67 in 10.0 mi South 15.0 mph 24.2 mph N/A   Clear
4:55 AM 26.6 °F 15.2 °F 14.0 °F 59% 29.66 in 10.0 mi South 13.8 mph 20.7 mph N/A   Clear
5:15 AM 26.6 °F 14.3 °F 14.0 °F 59% 29.65 in 10.0 mi South 16.1 mph 23.0 mph N/A   Clear
5:35 AM 28.4 °F 16.6 °F 14.0 °F 55% 29.64 in 10.0 mi South 16.1 mph 23.0 mph N/A   Scattered Clouds
5:55 AM 28.4 °F 16.2 °F 14.0 °F 55% 29.62 in 10.0 mi South 17.3 mph 26.5 mph N/A   Mostly Cloudy
6:15 AM 28.4 °F 15.8 °F 14.0 °F 55% 29.61 in 10.0 mi South 18.4 mph 27.6 mph N/A   Overcast
6:35 AM 28.4 °F 14.1 °F 14.0 °F 55% 29.62 in 10.0 mi South 24.2 mph - N/A   Overcast
6:55 AM 28.4 °F 15.4 °F 14.0 °F 55% 29.60 in 10.0 mi South 19.6 mph 26.5 mph N/A   Overcast
7:15 AM 28.4 °F 16.6 °F 14.0 °F 55% 29.60 in 10.0 mi South 16.1 mph 28.8 mph N/A   Overcast
7:35 AM 28.4 °F 15.1 °F 15.8 °F 59% 29.56 in 10.0 mi South 20.7 mph 27.6 mph N/A   Overcast
7:55 AM 28.4 °F 14.7 °F 15.8 °F 59% 29.56 in 10.0 mi South 21.9 mph 39.1 mph N/A   Mostly Cloudy
8:15 AM 28.4 °F 15.1 °F 15.8 °F 59% 29.57 in 10.0 mi South 20.7 mph 32.2 mph N/A   Mostly Cloudy
8:35 AM 28.4 °F 15.1 °F 15.8 °F 59% 29.58 in 10.0 mi South 20.7 mph 27.6 mph N/A   Partly Cloudy
8:55 AM 28.4 °F 16.2 °F 15.8 °F 59% 29.57 in 10.0 mi South 17.3 mph 27.6 mph N/A   Scattered Clouds
9:15 AM 28.4 °F 15.8 °F 15.8 °F 59% 29.57 in 10.0 mi South 18.4 mph 27.6 mph N/A   Scattered Clouds
9:35 AM 30.2 °F 18.5 °F 15.8 °F 55% 29.57 in 10.0 mi South 17.3 mph 28.8 mph N/A   Scattered Clouds
9:55 AM 30.2 °F 17.8 °F 15.8 °F 55% 29.57 in 10.0 mi South 19.6 mph 28.8 mph N/A   Mostly Cloudy
10:15 AM 30.2 °F 18.5 °F 17.6 °F 60% 29.59 in 10.0 mi SSW 17.3 mph 25.3 mph N/A   Overcast
10:35 AM 26.6 °F 13.4 °F 24.8 °F 93% 29.60 in 0.2 mi SSW 18.4 mph 33.4 mph N/A Snow Snow
10:55 AM 28.4 °F 16.2 °F 26.6 °F 93% 29.60 in 0.5 mi SSW 17.3 mph - N/A Snow Light Snow
11:15 AM 28.4 °F 16.6 °F 26.6 °F 93% 29.60 in 1.5 mi SSW 16.1 mph - N/A Snow Light Snow
11:35 AM 28.4 °F 17.5 °F 26.6 °F 93% 29.59 in - SSW 13.8 mph - N/A Snow Light Snow
11:55 AM 28.4 °F 16.6 °F 26.6 °F 93% 29.58 in 2.5 mi SSW 16.1 mph 21.9 mph N/A Snow Light Snow
12:15 PM 30.2 °F 18.1 °F 26.6 °F 86% 29.56 in 7.0 mi SSW 18.4 mph 24.2 mph N/A Snow Light Snow
12:35 PM 30.2 °F 17.8 °F 26.6 °F 86% 29.56 in 8.0 mi SSW 19.6 mph 27.6 mph N/A   Mostly Cloudy
12:55 PM 30.2 °F 17.4 °F 26.6 °F 86% 29.55 in 9.0 mi SSW 20.7 mph 27.6 mph N/A   Overcast
1:15 PM 32.0 °F 20.1 °F 26.6 °F 80% 29.55 in 8.0 mi SSW 19.6 mph - N/A   Overcast
1:40 PM 32.0 °F 20.8 °F 26.6 °F 80% 29.56 in 10.0 mi SSW 17.3 mph - N/A   Overcast
1:55 PM 32.0 °F 21.2 °F 26.6 °F 80% 29.56 in 10.0 mi SSW 16.1 mph - N/A   Overcast
2:15 PM 32.0 °F 22.1 °F 26.6 °F 80% 29.57 in 10.0 mi SSW 13.8 mph - N/A   Overcast
2:35 PM 33.8 °F 25.3 °F 26.6 °F 75% 29.58 in 10.0 mi SW 11.5 mph - N/A   Overcast
2:55 PM 33.8 °F 25.3 °F 26.6 °F 75% 29.60 in 10.0 mi SW 11.5 mph - N/A   Overcast
3:15 PM 33.8 °F 22.5 °F 28.4 °F 81% 29.62 in 10.0 mi West 19.6 mph 27.6 mph N/A   Overcast
3:35 PM 30.2 °F 17.4 °F 26.6 °F 86% 29.65 in 8.0 mi WNW 20.7 mph 29.9 mph N/A   Overcast
3:55 PM 28.4 °F 14.4 °F 23.0 °F 80% 29.67 in 6.0 mi WNW 23.0 mph 28.8 mph N/A   Haze
4:15 PM 24.8 °F 9.0 °F 19.4 °F 80% 29.69 in 7.0 mi WNW 25.3 mph - N/A   Mostly Cloudy
4:35 PM 23.0 °F 8.0 °F 17.6 °F 80% 29.72 in 8.0 mi WNW 20.7 mph 29.9 mph N/A   Clear
4:55 PM 21.2 °F 4.2 °F 17.6 °F 86% 29.73 in 8.0 mi WNW 25.3 mph 31.1 mph N/A   Partly Cloudy
5:15 PM 21.2 °F 6.4 °F 15.8 °F 80% 29.75 in 10.0 mi WNW 18.4 mph 26.5 mph N/A   Partly Cloudy
5:35 PM 19.4 °F 2.8 °F 14.0 °F 80% 29.76 in 9.0 mi NW 21.9 mph - N/A   Clear
5:55 PM 19.4 °F 5.5 °F 14.0 °F 80% 29.79 in 10.0 mi WNW 15.0 mph 23.0 mph N/A   Clear
6:15 PM 19.4 °F 3.6 °F 14.0 °F 80% 29.80 in 10.0 mi NW 19.6 mph 25.3 mph N/A   Clear
6:35 PM 17.6 °F 5.0 °F 12.2 °F 79% 29.83 in 10.0 mi WNW 11.5 mph 17.3 mph N/A   Partly Cloudy
6:55 PM 17.6 °F 3.7 °F 12.2 °F 79% 29.84 in 10.0 mi WNW 13.8 mph 19.6 mph N/A   Scattered Clouds
7:15 PM 15.8 °F 0.3 °F 10.4 °F 79% 29.85 in 10.0 mi WNW 16.1 mph - N/A   Partly Cloudy
7:35 PM 15.8 °F 2.7 °F 10.4 °F 79% 29.87 in 10.0 mi WNW 11.5 mph - N/A   Clear
7:55 PM 15.8 °F 2.7 °F 10.4 °F 79% 29.89 in 10.0 mi WNW 11.5 mph - N/A   Clear
8:15 PM 15.8 °F 2.1 °F 10.4 °F 79% 29.90 in 10.0 mi WNW 12.7 mph - N/A   Clear
8:35 PM 15.8 °F 0.9 °F 8.6 °F 73% 29.91 in 10.0 mi WNW 15.0 mph - N/A   Clear
8:55 PM 14.0 °F -1.4 °F 8.6 °F 79% 29.93 in 10.0 mi WNW 15.0 mph 20.7 mph N/A   Clear
9:15 PM 14.0 °F -1.4 °F 6.8 °F 73% 29.94 in 10.0 mi WNW 15.0 mph 20.7 mph N/A   Clear
9:35 PM 14.0 °F -0.8 °F 6.8 °F 73% 29.95 in 10.0 mi NW 13.8 mph - N/A   Clear
9:55 PM 14.0 °F -1.4 °F 6.8 °F 73% 29.97 in 10.0 mi WNW 15.0 mph - N/A   Clear
10:15 PM 12.2 °F -2.5 °F 6.8 °F 79% 29.97 in 10.0 mi NW 12.7 mph 21.9 mph N/A   Clear
10:35 PM 12.2 °F -1.8 °F 5.0 °F 73% 29.97 in 10.0 mi NW 11.5 mph 18.4 mph N/A   Clear
10:55 PM 10.4 °F -5.4 °F 5.0 °F 79% 29.97 in 10.0 mi WNW 13.8 mph - N/A   Mostly Cloudy
11:15 PM 10.4 °F -4.8 °F 3.2 °F 73% 30.00 in 10.0 mi WNW 12.7 mph - N/A   Mostly Cloudy
11:35 PM 8.6 °F -5.5 °F 3.2 °F 79% 29.99 in 10.0 mi NW 10.4 mph 17.3 mph N/A   Partly Cloudy
11:55 PM 8.6 °F -3.7 °F 1.4 °F 73% 29.99 in 10.0 mi NW 8.1 mph - N/A   Clear